| time (UTC) | temp F | wind direction | speed MPH | gust MPH | rain 1hr in | rain 24hr in | rain mn in | humidity % | barometer mb |
| 20260510231624 | 73 | 68 | 10.0 | 11.0 | 0.00 | 0.00 | 0.00 | ||
| 20260510230124 | 74 | 96 | 10.0 | 7.0 | 0.00 | 0.00 | 0.00 | ||
| 20260510224624 | 73 | 104 | 8.0 | 7.0 | 0.00 | 0.00 | 0.00 | ||
| 20260510223124 | 72 | 68 | 6.0 | 5.0 | 0.00 | 0.00 | 0.00 | ||
| 20260510221624 | 73 | 66 | 11.0 | 12.0 | 0.00 | 0.00 | 0.00 | ||
| 20260510220124 | 71 | 87 | 6.0 | 8.0 | 0.00 | 0.00 | 0.00 | ||
| 20260510214625 | 72 | 80 | 4.0 | 7.0 | 0.00 | 0.00 | 0.00 | ||
| 20260510211625 | 71 | 90 | 8.0 | 5.0 | 0.00 | 0.00 | 0.00 | ||
| 20260510210125 | 71 | 93 | 7.0 | 8.0 | 0.00 | 0.00 | 0.00 | ||
| 20260510204625 | 69 | 111 | 8.0 | 7.0 | 0.00 | 0.00 | 0.00 | ||
| 20260510203125 | 72 | 91 | 7.0 | 4.0 | 0.00 | 0.00 | 0.00 | ||
| 20260510201625 | 74 | 45 | 10.0 | 8.0 | 0.00 | 0.00 | 0.00 | ||
| 20260510200125 | 73 | 79 | 6.0 | 7.0 | 0.00 | 0.00 | 0.00 | ||
| 20260510194626 | 75 | 66 | 11.0 | 9.0 | 0.00 | 0.00 | 0.00 | ||
| 20260510193126 | 74 | 98 | 5.0 | 8.0 | 0.00 | 0.00 | 0.00 | ||
| 20260510191626 | 73 | 75 | 7.0 | 8.0 | 0.00 | 0.00 | 0.00 | ||
| 20260510190126 | 73 | 110 | 9.0 | 5.0 | 0.00 | 0.00 | 0.00 | ||
| 20260510184626 | 73 | 96 | 7.0 | 9.0 | 0.00 | 0.00 | 0.00 | ||
| 20260510183126 | 72 | 70 | 10.0 | 11.0 | 0.00 | 0.00 | 0.00 | ||
| 20260510181627 | 72 | 122 | 11.0 | 5.0 | 0.00 | 0.00 | 0.00 | ||
| 20260510180126 | 73 | 60 | 9.0 | 11.0 | 0.00 | 0.00 | 0.00 | ||
| 20260510174629 | 71 | 100 | 8.0 | 8.0 | 0.00 | 0.00 | 0.00 | ||
| 20260510173127 | 71 | 107 | 9.0 | 6.0 | 0.00 | 0.00 | 0.00 | ||
| 20260510171630 | 71 | 105 | 9.0 | 8.0 | 0.00 | 0.00 | 0.00 | ||
| 20260510170128 | 70 | 76 | 10.0 | 8.0 | 0.00 | 0.00 | 0.00 | ||
| 20260510164629 | 71 | 93 | 10.0 | 8.0 | 0.00 | 0.00 | 0.00 | ||
| 20260510163132 | 71 | 104 | 9.0 | 6.0 | 0.00 | 0.00 | 0.00 | ||
| 20260510161630 | 72 | 56 | 8.0 | 12.0 | 0.00 | 0.00 | 0.00 | ||
| 20260510160133 | 72 | 93 | 8.0 | 6.0 | 0.00 | 0.00 | 0.00 | ||
| 20260510154631 | 70 | 66 | 6.0 | 9.0 | 0.00 | 0.00 | 0.00 | ||
| 20260510153132 | 67 | 98 | 7.0 | 4.0 | 0.00 | 0.00 | 0.00 | ||
| 20260510151633 | 66 | 97 | 7.0 | 4.0 | 0.00 | 0.00 | 0.00 | ||
| 20260510150134 | 64 | 77 | 4.0 | 4.0 | 0.00 | 0.00 | 0.00 | ||
| 20260510144635 | 64 | 98 | 4.0 | 2.0 | 0.00 | 0.00 | 0.00 | ||
| 20260510143136 | 64 | 52 | 6.0 | 7.0 | 0.00 | 0.00 | 0.00 | ||
| 20260510141637 | 62 | 82 | 7.0 | 8.0 | 0.00 | 0.00 | 0.00 | ||
| 20260510140137 | 62 | 86 | 0.0 | 0.0 | 0.00 | 0.00 | 0.00 | ||
| 20260510134638 | 62 | 107 | 0.0 | 1.0 | 0.00 | 0.00 | 0.00 | ||
| 20260510130142 | 61 | 135 | 10.0 | 12.0 | 0.00 | 0.00 | 0.00 | ||
| 20260510124642 | 61 | 118 | 7.0 | 5.0 | 0.00 | 0.00 | 0.00 | ||
| 20260510121645 | 61 | 121 | 5.0 | 8.0 | 0.00 | 0.00 | 0.00 | ||
| 20260510120145 | 58 | 79 | 1.0 | 1.0 | 0.00 | 0.00 | 0.00 | ||
| 20260510114645 | 60 | 122 | 0.0 | 0.0 | 0.00 | 0.00 | 0.00 | ||
| 20260510113146 | 59 | 146 | 0.0 | 0.0 | 0.00 | 0.00 | 0.00 | ||
| 20260510111647 | 59 | 173 | 0.0 | 0.0 | 0.00 | 0.00 | 0.00 | ||
| 20260510110147 | 61 | 124 | 0.0 | 0.0 | 0.00 | 0.00 | 0.00 | ||
| 20260510104648 | 60 | 122 | 1.0 | 0.0 | 0.00 | 0.00 | 0.00 | ||
| 20260510103149 | 58 | 193 | 0.0 | 0.0 | 0.00 | 0.00 | 0.00 | ||
| 20260510101649 | 58 | 82 | 0.0 | 0.0 | 0.00 | 0.00 | 0.00 | ||
| 20260510100150 | 59 | 82 | 0.0 | 0.0 | 0.00 | 0.00 | 0.00 | ||
| 20260510094651 | 60 | 82 | 0.0 | 0.0 | 0.00 | 0.00 | 0.00 | ||
| 20260510093152 | 60 | 125 | 2.0 | 0.0 | 0.00 | 0.00 | 0.00 | ||
| 20260510091652 | 57 | 115 | 0.0 | 0.0 | 0.00 | 0.00 | 0.00 | ||
| 20260510090153 | 56 | 159 | 0.0 | 0.0 | 0.00 | 0.00 | 0.00 | ||
| 20260510084654 | 57 | 159 | 0.0 | 0.0 | 0.00 | 0.00 | 0.00 | ||
| 20260510083154 | 60 | 159 | 0.0 | 0.0 | 0.00 | 0.00 | 0.00 | ||
| 20260510081655 | 61 | 159 | 0.0 | 0.0 | 0.00 | 0.00 | 0.00 | ||
| 20260510074656 | 63 | 152 | 0.0 | 0.0 | 0.00 | 0.00 | 0.00 | ||
| 20260510073157 | 63 | 152 | 0.0 | 0.0 | 0.00 | 0.00 | 0.00 | ||
| 20260510071657 | 63 | 152 | 0.0 | 0.0 | 0.00 | 0.00 | 0.00 | ||
| 20260510070158 | 65 | 152 | 0.0 | 0.0 | 0.00 | 0.00 | 0.00 | ||
| 20260510064658 | 66 | 152 | 0.0 | 0.0 | 0.00 | 0.00 | 0.00 | ||
| 20260510063159 | 65 | 219 | 0.0 | 0.0 | 0.00 | 0.00 | 0.00 | ||
| 20260510061659 | 67 | 62 | 0.0 | 0.0 | 0.00 | 0.00 | 0.00 | ||
| 20260510060159 | 67 | 62 | 0.0 | 0.0 | 0.00 | 0.00 | 0.00 | ||
| 20260510054700 | 65 | 62 | 0.0 | 0.0 | 0.00 | 0.00 | 0.00 | ||
| 20260510053200 | 65 | 62 | 0.0 | 0.0 | 0.00 | 0.00 | 0.00 | ||
| 20260510051700 | 66 | 62 | 0.0 | 0.0 | 0.00 | 0.00 | 0.00 | ||
| 20260510050201 | 67 | 62 | 0.0 | 0.0 | 0.00 | 0.00 | 0.00 | ||
| 20260510040203 | 73 | 162 | 11.0 | 8.0 | 0.00 | 0.00 | 0.00 | ||
| 20260510034702 | 74 | 125 | 3.0 | 3.0 | 0.00 | 0.00 | 0.00 | ||
| 20260510031703 | 74 | 239 | 1.0 | 1.0 | 0.00 | 0.00 | 0.00 | ||
| 20260510030202 | 75 | 232 | 4.0 | 6.0 | 0.00 | 0.00 | 0.00 | ||
| 20260510023202 | 75 | 233 | 2.0 | 3.0 | 0.00 | 0.00 | 0.00 | ||
| 20260510020202 | 75 | 238 | 2.0 | 0.0 | 0.00 | 0.00 | 0.00 | ||
| 20260510014702 | 75 | 187 | 0.0 | 0.0 | 0.00 | 0.00 | 0.00 | ||
| 20260510013203 | 76 | 233 | 3.0 | 2.0 | 0.00 | 0.00 | 0.00 | ||
| 20260510011702 | 78 | 245 | 0.0 | 0.0 | 0.00 | 0.00 | 0.00 | ||
| 20260510004701 | 80 | 166 | 1.0 | 1.0 | 0.00 | 0.00 | 0.00 | ||
| 20260510003200 | 81 | 195 | 4.0 | 8.0 | 0.00 | 0.00 | 0.00 | ||
| 20260510001700 | 84 | 231 | 7.0 | 4.0 | 0.00 | 0.00 | 0.00 | ||
| 20260509234659 | 87 | 263 | 2.0 | 0.0 | 0.00 | 0.00 | 0.00 |